DECAYED

STARLINK-2022, 47643 (Decayed)

Orbit data source: Space-Track

STARLINK-2022, 47643 was a payload satellite owned by SpaceX/Seattle (US) in LEO that was launched on Tue, 16 Feb 2021 UTC via an FALCON 9 launch vehicle from the Air Force Eastern Test Range (AFETR). Payload-class satellites include a variety of spacecraft equipped with specific instruments for various scientific and technological missions. These include communications satellites like Starlink; space stations such as the ISS; scientific satellites like the Hubble; Earth observation satellites from companies like Planet Labs, Umbra, and HawkEye 360; GPS; miniature CubeSats for education and research; and military/defense satellites.

Not visible in the next 10 days
Identifier
47643, 2021-012Z
Orbit
Decayed
Country
Flag of USUS
Related business
Manufacturer
SpaceX/Seattle
Mission
Decayed Commercial Communications
Bus & Motor
STARLINK, Unknown motor
Mass
260 kg wet, ~248 kg dry
Launch date (UTC)
2021-02-16 (5 years ago)
Launch vehicle
FALCON 9
Launch site
Air Force Eastern Test Range (AFETR)
Object type
Payload
Rocket body
Debris
Shape & HBR
Box + 1 Pan, 10.1 m
Radar Cross Section
13.562 m², Large (>1 m²)

Expand to show TLE details & history
Last TLE update: 3 months ago

TLE from 3 months ago
0 STARLINK-2022
1 47643U 21012Z   26083.65167544  .15677659  12399-4  92362-3 0  9996
2 47643  52.9857 259.4773 0006231 263.4664  96.5674 16.41633944283700
Epoch: 2026-03-24T15:38Z
TLE epoch observation values (Epoch: 2026-03-24T15:38:24.758Z)
Latitude
0.00008°
Longitude
-157.25207°
Altitude
162.851 km
Speed
7.81 km/s
True Right ascension
17h 17m 54s
True Declination
0° 00' 00"
Sunlit
Object was in full shadow at epoch
Visualization orbit readout
Latitude
Unknown
Longitude
Unknown
Altitude
Unknown
Speed
Unknown
Apparent Right ascension
Unknown
Apparent Declination
Unknown
Sunlit
N/A
Visualization observer readout
Local Sidereal Time
23:18:53
Azimuth
Unknown
Elevation
Unknown
Doppler factor
Unknown
Orbital elements
Apogee altitude
165.832 km
Perigee altitude
157.682 km
Semi-major axis
6,539.894 km
Eccentricity
0.00062
Inclination
52.9857°
RAAN
259.4773°
Arg. of periapsis
263.4664°
True anomaly
96.63833°
Mean anomaly
96.5674°
Eccentric anomaly
96.60286°
Mean motion
4.10381 °/min
Orbital period
87.72 mins
BSTAR
0.00092362
Loading maneuver chart data...
Computing Atmospheric mass density...

Documentation

Showing up to 5 results
|